Location: Gipe Farm
(40.9466°N, 95.5370°W)
Time: 00:26:53
(UTC-05:00)

Daily predictions for brighter satellites

Satellite Brightness Start Highest point End
(mag) Time Altitude Azimuth Time Altitude Azimuth Time Altitude Azimuth
Cosmos 389 Rocket 3.7 00:01:10 10° N 00:03:53 36° NE 00:03:53 36° NE
ALOS 2 3.8 00:09:14 29° ENE 00:09:36 30° ENE 00:13:24 10° N
CZ-4B R/B 3.6 00:10:44 19° ENE 00:10:44 19° ENE 00:12:43 10° NNE
SeaSat 1 2.8 00:09:19 46° ESE 00:10:21 56° ENE 00:15:11 10° NNW
Cosmos 2333 Rocket 3.1 00:06:34 10° NW 00:11:50 38° WSW 00:13:18 33° SW
SL-16 R/B 2.1 00:06:56 10° NNW 00:12:40 84° ENE 00:13:53 57° SSE
NOSS 2-3 (C) 3.9 00:13:13 62° SE 00:13:19 62° ESE 00:18:48 10° NE
Cosmos 1455 4.0 00:10:26 10° NW 00:13:29 23° W 00:13:51 23° W
Cosmos 1125 Rocket 3.6 00:13:45 46° SW 00:15:20 73° WNW 00:20:40 10° NNE
Cosmos 1048 Rocket 3.9 00:11:19 10° NNW 00:16:43 90° SW 00:17:35 64° SSE
Okean 1-7 2.9 00:18:15 10° N 00:22:21 79° NE 00:22:21 79° NE
ASTEX 1 4.1 00:19:33 10° NNE 00:24:03 38° E 00:24:03 38° E
Cosmos 2297 Rocket 2.9 00:21:13 23° SW 00:24:31 49° WNW 00:30:01 10° NNE
CZ-2C R/B 4.3 00:24:13 10° NE 00:27:31 18° E 00:27:31 18° E
Cosmos 1703 Rocket 4.0 00:25:28 10° NNW 00:29:41 49° W 00:29:46 49° W
Cosmos 2219 Rocket 3.9 00:27:07 10° WNW 00:30:56 19° W 00:32:19 17° WSW
NOSS 2-3 (D) 3.8 00:33:52 71° SSW 00:34:27 88° ESE 00:40:05 10° NE
Cosmos 158 Rocket 3.9 00:33:14 10° NNW 00:38:32 74° ENE 00:39:03 67° ESE
Cosmos 2221 Rocket 4.4 00:35:25 10° NNW 00:39:42 41° W 00:39:53 41° W
Cosmos 2074 Rocket 3.9 00:38:41 57° S 00:40:08 85° E 00:46:28 10° N
Cosmos 372 Rocket 4.0 00:39:23 61° SW 00:40:14 75° WNW 00:45:30 10° NNE
Aureole 2 Rocket 4.0 00:38:30 10° N 00:40:24 32° N 00:40:24 32° N
SL-08 ROCKET BODY 4.4 00:43:56 59° SSE 00:45:08 79° E 00:51:19 10° N
Cosmos 1603 3.9 00:40:55 10° NNW 00:46:34 62° ENE 00:47:42 51° ESE
Cosmos 1674 Rocket 4.5 00:42:26 10° N 00:46:25 39° ENE 00:46:25 39° ENE
CZ-4C R/B 4.2 00:49:18 42° NNW 00:49:18 42° NNW 00:51:49 10° NNW
Meteor 1-26 Rocket 4.4 00:42:49 10° NNW 00:48:20 59° W 00:49:14 52° SW
Cosmos 921 Rocket 4.4 00:50:11 27° ENE 00:50:11 27° ENE 00:52:46 10° NE
Cosmos 2327 Rocket 4.5 00:47:56 55° SSW 00:49:29 83° W 00:55:57 10° N
Cosmos 1607 4.5 00:47:07 10° NNW 00:53:07 52° NE 00:55:25 35° ESE
CZ-3 Stage 3 4.2 00:16:38 10° WSW 00:59:16 50° SSW 01:01:24 42° SSE
Cosmos 44 Rocket 3.8 01:01:14 48° WSW 01:02:22 60° NW 01:07:35 10° NNE
ATLAS 2AS CENTAUR R/B 4.1 00:55:24 10° WSW 01:02:33 41° NW 01:10:08 10° NNE
Cosmos 2237 Rocket 4.1 00:59:15 10° WNW 01:02:34 16° W 01:03:21 16° WSW
Cosmos 1892 3.6 01:05:58 48° N 01:05:58 48° N 01:08:47 10° N
Lacrosse 4 Rocket 3.0 01:03:09 10° NW 01:06:05 27° W 01:06:05 27° W
Cosmos 2154 Rocket 4.0 01:08:37 59° SSE 01:09:44 71° E 01:16:00 10° NNE
Cosmos 1356 Rocket 4.0 01:11:17 52° NNE 01:11:17 52° NNE 01:14:29 10° NNE
CZ-4C R/B 3.3 01:03:50 10° NNW 01:10:46 57° NE 01:15:06 26° ESE
Cosmos 1932 4.4 01:06:03 10° NW 01:12:27 76° WSW 01:13:31 62° S
BREEZE-M DEB (TANK) 4.5 01:11:14 21° W 01:14:00 60° NNW 01:26:51 10° ENE
Meteor 2-3 Rocket 4.4 01:15:38 41° WSW 01:16:56 48° WNW 01:22:27 10° N
ATLAS 3B R/B 3.3 01:11:50 10° NW 01:17:59 36° WSW 01:18:29 35° WSW
Cosmos 1689 Rocket 4.4 01:20:14 26° NW 01:20:14 26° NW 01:21:56 10° NNW
Geosat 3.8 01:19:36 10° NNE 01:24:40 80° ESE 01:24:44 80° SE
Meteor 1-10 Rocket 4.2 01:19:38 10° NNW 01:25:35 77° W 01:26:22 66° SSW
Cosmos 2251 Rocket 3.7 01:21:11 10° NNW 01:26:22 56° WSW 01:26:22 56° WSW
Landsat 5 4.2 01:28:37 49° WNW 01:28:37 49° WNW 01:32:32 10° NNW
USA 238 DEB 3.7 01:21:13 10° NW 01:28:11 67° WSW 01:29:28 56° SSW
Cosmos 1825 3.7 01:29:16 31° NE 01:29:16 31° NE 01:31:46 10° NNE
USA 238 3.7 01:21:19 10° NW 01:28:17 67° WSW 01:29:35 56° S
Okean 3 4.4 01:24:50 10° N 01:28:43 40° ENE 01:28:43 40° ENE
MOS 1-B Rocket 3.7 01:28:35 66° SSE 01:29:27 86° ENE 01:35:05 10° NNW
BREEZE-M DEB (TANK) 4.1 01:28:23 21° NW 01:29:37 29° N 01:34:35 10° ENE
FALCON 9 R/B 3.9 01:21:56 10° W 01:30:02 29° WSW 01:30:02 29° WSW
Sich 1 Rocket 3.7 01:34:20 72° NNW 01:34:20 72° NNW 01:38:30 10° N
Cosmos 1733 Rocket 3.8 01:35:06 44° WNW 01:35:06 44° WNW 01:39:12 10° N
H-2A R/B 3.8 01:32:13 10° N 01:35:59 32° WNW 01:36:09 32° WNW
COSMOS 2455 4.4 01:32:21 10° WNW 01:36:29 20° WSW 01:36:29 20° WSW
CZ-2C R/B 3.6 01:37:40 49° ESE 01:38:56 61° ENE 01:44:28 10° N
CZ-4B R/B 3.9 01:44:29 17° WNW 01:44:29 17° WNW 01:45:44 10° NW
Cosmos 2341 Rocket 4.0 01:41:50 59° SSW 01:43:07 81° W 01:49:32 10° N
GEOS 3 Rocket 4.4 01:44:08 38° W 01:44:08 38° W 01:48:17 10° NW
Cosmos 2263 Rocket 2.4 01:44:27 53° ESE 01:44:47 54° ESE 01:50:19 10° NNE
Cosmos 1782 4.0 01:41:52 10° NNW 01:44:41 37° NW 01:44:41 37° NW
ALOS 2 4.3 01:46:38 23° W 01:46:38 23° W 01:49:30 10° NW
Cosmos 1867 4.3 01:40:49 10° NNW 01:46:09 49° NE 01:48:17 32° ESE
Cosmos 1378 Rocket 3.7 01:43:35 10° N 01:47:29 70° N 01:47:29 70° N
SeaSat 1 4.3 01:49:07 18° W 01:49:07 18° W 01:51:38 10° WNW
Cosmos 962 Rocket 4.4 01:47:55 59° SW 01:49:01 73° W 01:55:09 10° N
Cosmos 494 Rocket 4.4 01:45:12 10° NNW 01:50:05 49° W 01:50:05 49° W
Meteor 2-13 Rocket 4.3 01:50:47 62° SSE 01:51:52 80° E 01:58:01 10° N
Helios 1A Rocket 4.0 01:49:30 10° N 01:53:12 37° WNW 01:53:12 37° WNW
SL-16 R/B 4.3 01:53:38 10° WNW 01:55:45 13° W 01:55:45 13° W
SL-8 Rocket 4.0 01:55:08 58° SSE 01:56:27 77° E 02:02:47 10° N
Cosmos 1238 Rocket 4.0 01:56:03 10° NNW 01:58:38 34° NW 01:58:38 34° NW
Cosmos 1242 Rocket 4.5 01:57:14 10° NNE 01:59:48 23° ENE 01:59:48 23° ENE
NOSS 3-2 (C) 4.0 01:54:24 10° NNW 02:01:57 79° NE 02:06:35 29° SE
Cosmos 44 4.4 02:02:57 34° W 02:04:35 43° NW 02:09:48 10° NNE
Cosmos 2218 Rocket 4.0 02:04:59 56° SSE 02:06:22 76° E 02:12:43 10° N
CZ-2C R/B 2.9 02:03:16 10° N 02:08:19 53° WNW 02:09:02 49° W
RESURS DK-1 3.0 02:11:02 50° ENE 02:11:02 50° ENE 02:14:28 10° NNE
Okean 2 Rocket 3.1 02:11:55 80° NW 02:11:55 80° NW 02:16:17 10° N
Cosmos 1782 Rocket 3.7 02:12:44 64° NW 02:12:44 64° NW 02:16:49 10° N
Cosmos 1943 3.3 02:14:08 10° NNW 02:19:40 55° WSW 02:19:55 54° WSW
Cosmos 2366 rocket 3.9 02:18:34 56° S 02:19:59 84° E 02:26:13 10° N
Meteor 1-27 Rocket 4.2 02:14:51 10° NNW 02:20:21 44° W 02:20:56 42° WSW
PSLV R/B 4.4 02:22:41 50° NW 02:22:41 50° NW 02:26:00 10° NNW
NOSS 3-4 (A) 3.7 02:21:45 44° WSW 02:23:52 70° NW 02:30:28 10° NNE
NOSS 3-4 (C) 3.6 02:21:52 44° WSW 02:23:58 71° NW 02:30:34 10° NNE
NOSS 3-2 (A) 3.9 02:17:24 10° NW 02:24:54 68° WSW 02:27:48 42° S
Meteor 1-14 Rocket 4.3 02:30:31 55° S 02:31:55 84° E 02:37:50 10° N
Cosmos 1190 Rocket 4.4 02:29:48 10° NNW 02:34:58 58° ENE 02:36:56 36° SE
Cosmos 1975 Rocket 3.9 02:31:00 10° NNW 02:34:37 39° WNW 02:34:37 39° WNW
Cosmos 864 Rocket 4.5 02:40:28 49° SW 02:42:06 70° W 02:48:14 10° N
BREEZE-M TANK 2.7 02:38:21 10° WNW 02:44:25 14° E 02:44:50 10° E
Cosmos 1727 Rocket 3.9 02:36:33 10° N 02:42:46 76° W 02:44:31 49° SSW
Cosmos 1371 Rocket 4.1 02:42:18 54° SW 02:43:20 68° WNW 02:48:41 10° NNE
Cosmos 2056 Rocket 3.4 02:43:25 61° SSW 02:44:23 89° WNW 02:49:39 10° NNE
Cosmos 1536 Rocket 3.4 02:42:43 10° N 02:47:07 82° E 02:47:31 72° SSE
NPP 4.2 02:44:17 10° NNE 02:49:31 50° E 02:51:12 37° SSE
Cosmos 407 Rocket 3.8 02:44:34 10° NNW 02:49:43 63° ENE 02:52:00 32° SE
BREEZE-M DEB (TANK) 3.6 02:42:25 10° WNW 02:52:28 57° SW 02:53:00 54° SSW
JB-3 4.2 02:49:31 10° NNE 02:53:21 87° NE 02:53:21 87° NE
Meteor 1-18 Rocket 4.2 02:52:19 10° N 02:58:01 90° ENE 03:00:05 42° S
Cosmos 676 Rocket 4.5 02:53:46 10° NNW 02:58:53 56° ENE 03:01:57 23° SE
CZ-4C R/B 3.5 02:52:47 10° NW 02:59:13 35° WSW 03:00:14 34° SW
PSLV R/B 3.6 02:57:22 10° N 03:01:31 60° WNW 03:01:51 58° W
ERS-2 2.9 02:58:42 10° NNE 03:02:15 41° E 03:02:32 41° ESE
SL-27 R/B 2.9 02:59:37 10° N 03:03:16 60° ENE 03:03:39 56° ESE
Abrixas rocket 3.2 03:03:32 42° NW 03:03:45 42° NNW 03:06:59 10° NE
Gbstr 26 Del rocket 3.2 03:04:26 47° ESE 03:04:26 47° ESE 03:07:49 10° ENE
Elektron 3 4.3 03:01:19 10° NW 03:04:29 88° SW 03:10:07 10° SE
CZ-2D R/B 4.3 03:03:44 10° NE 03:07:31 19° E 03:11:18 10° SE
Cosmos 2151 Rocket 4.1 03:10:26 41° W 03:10:52 42° WNW 03:15:08 10° N
NOSS 2-2 (E) 4.4 03:11:10 34° SE 03:11:53 37° ESE 03:16:13 10° NE
Cosmos 1812 2.6 03:08:00 10° N 03:11:55 88° E 03:12:16 73° SSE
IRAS Rocket 4.2 03:09:09 10° NNE 03:14:42 85° ESE 03:16:48 40° SSW
Meteor 1-20 Rocket 4.2 03:13:29 41° SSW 03:15:38 84° W 03:21:28 10° N
Okean 1-7 Rocket 3.8 03:12:51 10° N 03:17:25 70° E 03:19:11 37° SSE
Okean 1 Rocket 3.0 03:17:27 51° S 03:18:32 80° E 03:23:01 10° N
SL-08 R/B 3.3 03:17:23 38° SSE 03:19:19 88° WSW 03:24:15 10° NNW
Cosmos 724 4.3 03:15:49 10° NNW 03:21:59 84° WSW 03:27:23 14° SSE
Iridium 4 Rocket 3.9 03:17:41 10° NNW 03:22:10 43° W 03:23:10 38° WSW
Cosmos 1000 Rocket 4.4 03:17:47 10° N 03:23:57 82° W 03:27:08 31° S
Meteor 1-11 Rocket 4.3 03:20:47 25° SSE 03:24:08 55° E 03:29:59 10° NNE
Cosmos 1954 Rocket 4.1 03:20:10 10° NNW 03:25:22 76° ENE 03:28:56 20° SSE
Cosmos 1844 Rocket 2.7 03:23:18 38° SSW 03:25:33 80° ESE 03:31:15 10° NNE
IRS-1C 4.2 03:20:58 10° NNE 03:26:20 73° ESE 03:28:43 34° S
CBERS 1 LM4 rocket 4.5 03:22:52 10° NNE 03:27:46 69° ESE 03:29:42 36° S
Meteor 1-13 Rocket 4.4 03:22:53 10° N 03:28:36 73° E 03:32:42 20° SSE
Cosmos 2263 Rocket 3.8 03:26:08 16° W 03:29:02 24° NW 03:33:36 10° N
USA 234 3.1 03:26:32 10° SE 03:33:03 75° SW 03:39:36 10° NW
Okean 1 3.4 03:30:36 10° NNW 03:34:32 55° W 03:35:05 50° SW
AQUA 3.8 03:30:23 10° N 03:35:09 74° WNW 03:36:52 39° SSW
Cosmos 1844 3.8 03:34:04 32° S 03:36:44 73° ESE 03:42:29 10° NNE
Cosmos 1400 Rocket 4.3 03:35:34 18° SE 03:37:40 30° E 03:41:08 10° NNE
GP-B 3.2 03:36:52 10° N 03:41:14 58° W 03:42:35 39° SW
SL-16 R/B 3.3 03:35:14 10° SE 03:41:15 53° ENE 03:47:16 10° N
Cosmos 1025 Rocket 3.5 03:37:02 10° N 03:41:18 58° E 03:44:14 19° SSE
Meteor 2-14 Rocket 4.5 03:37:41 26° S 03:41:19 78° E 03:47:24 10° N
CENTAUR R/B 3.0 03:36:13 10° NW 03:44:07 85° WSW 03:52:27 10° SSE
Cosmos 1605 Rocket 4.2 03:40:47 21° S 03:45:01 69° E 03:51:15 10° NNE
Cosmos 1821 Rocket 4.1 03:42:49 29° SSW 03:46:14 70° W 03:52:39 10° N
UNK 4.1 03:42:44 25° SW 03:47:32 55° SSE 03:51:00 10° ENE
Meteor 2-21 Rocket 4.4 03:45:00 28° SSW 03:48:25 80° W 03:54:34 10° N
ATLAS 5 CENTAUR R/B 3.4 03:42:40 10° NNW 03:48:26 49° NE 03:54:35 10° SE
Resurs 1-4 Rocket 3.0 03:43:41 10° NNE 03:48:45 43° E 03:52:51 15° SSE
Cosmos 2123 Rocket 4.0 03:43:16 10° N 03:49:40 88° E 03:54:57 15° S
Cosmos 2278 Rocket 2.5 03:46:43 25° S 03:49:58 62° ESE 03:55:35 10° NNE
ARIANE 5 R/B 2.8 03:45:10 10° NNE 03:50:07 60° E 03:53:20 22° S
COSMOS 2406 3.7 03:44:54 10° NW 03:50:14 40° WSW 03:52:25 29° SSW
Cosmos 1452 Rocket 3.8 03:48:02 31° SW 03:50:19 54° WNW 03:55:29 10° N
Meteor 2-15 4.4 03:45:44 10° N 03:51:55 87° E 03:57:12 15° S
BREEZE-M DEB (TANK) 3.8 03:52:46 16° SE 03:52:46 16° SE 03:54:27 10° ESE
Cosmos 1356 4.4 03:51:14 24° SSE 03:52:58 43° E 03:56:21 10° NNE
Cosmos 1023 Rocket 4.4 03:50:31 10° NNW 03:55:38 88° WSW 04:00:33 11° SSE
Cosmos 1420 Rocket 4.0 03:57:31 27° SSW 04:00:28 85° WNW 04:05:48 10° NNE
Cosmos 1633 2.6 03:58:54 31° S 04:00:30 75° E 04:04:08 10° N
Cosmos 1602 3.8 03:59:27 36° SW 04:00:47 60° W 04:04:36 10° N
ADEOS 3.7 03:58:38 10° N 04:03:47 61° WNW 04:06:45 25° SW
Cosmos 1315 Rocket 4.0 04:02:18 13° SSE 04:05:33 39° E 04:09:20 10° NNE
COSMOS 2487 2.4 04:02:57 10° NNW 04:06:36 80° WSW 04:09:05 19° SSE
Cosmos 1544 Rocket 3.7 04:05:15 20° S 04:08:13 74° E 04:12:36 10° NNE
Cosmos 2082 Rocket 3.8 04:03:23 10° N 04:08:40 37° ENE 04:13:54 10° SE
USA 161 2.0 04:13:40 37° WSW 04:13:59 38° W 04:16:46 10° NNW
Cosmos 1140 Rocket 3.5 04:11:30 10° NNW 04:16:32 56° WSW 04:21:13 12° S
Meteor 2-4 Rocket 3.5 04:12:29 10° NNW 04:17:54 83° W 04:23:14 10° S
NOSS 2-2 (D) 4.0 04:19:52 22° WSW 04:22:22 53° NW 04:27:06 10° NNE
Okean 2 3.3 04:19:50 10° N 04:23:57 88° E 04:28:03 10° S
Cosmos 1892 Rocket 3.6 04:27:17 10° NNW 04:31:34 57° W 04:35:22 13° S
Cosmos 1536 3.6 04:30:04 21° SW 04:32:17 37° WNW 04:36:05 10° N
Cosmos 1850 Rocket 4.1 04:27:35 10° NNW 04:32:41 54° WSW 04:37:47 10° S
UNKNOWN OBJECT B 2.9 04:29:03 10° NNE 04:33:10 84° ESE 04:36:47 13° S
ATLAS 2A CENTAUR R/B 4.3 04:27:20 16° SW 04:33:35 35° S 05:09:00 10° ESE
Cosmos 1741 Rocket 4.2 04:30:00 10° NNW 04:35:08 53° WSW 04:40:12 10° S
ERS-2 4.4 04:33:49 10° NW 04:35:41 13° WNW 04:37:23 10° W
Cosmos 1459 Rocket 4.3 04:29:44 10° S 04:36:02 71° E 04:42:19 10° NNE
NOSS 2-2 (C) 4.5 04:33:54 16° WSW 04:36:54 39° NW 04:41:30 10° NNE
SME Rocket 3.0 04:37:15 10° S 04:40:54 53° WSW 04:44:57 10° NNW
Cosmos 2100 Rocket 4.1 04:35:13 10° S 04:41:27 83° E 04:47:48 10° N
UNK 4.0 04:38:17 10° S 04:42:44 48° W 04:47:14 10° NNW
USA 129 2.4 04:41:36 10° SSE 04:43:40 53° ENE 04:45:42 10° N
CZ-2D R/B 2.4 04:42:35 10° N 04:47:55 57° WNW 04:53:01 11° SSW
Cosmos 1833 Rocket 3.3 04:45:20 10° NNW 04:50:54 61° ENE 04:56:26 10° SE
Gbstr 26 Del rocket 4.2 04:47:37 10° W 04:51:04 29° NNW 04:54:24 10° NE
CZ-2D R/B 3.3 04:48:02 10° N 04:52:03 82° WNW 04:56:07 10° SSW
Cosmos 1461 4.1 04:48:28 13° WSW 04:52:18 37° NW 04:56:36 10° NNE
EO 1 Del DPAF 4.2 04:49:49 12° SSW 04:52:53 30° W 04:56:22 10° NW
IRS-1D 4.4 04:53:27 10° N 04:58:01 34° WNW 05:02:21 11° SW
APEX 2.6 04:55:50 13° SSW 04:58:20 85° WNW 05:01:44 10° NNE
MOZ.5/SAFIR/RUBIN 5/SL-8 4.0 04:57:30 10° SSE 05:02:16 77° ENE 05:07:04 10° N
Cosmos 1602 Rocket 3.5 04:57:57 10° N 05:02:17 76° W 05:06:38 10° S
Timation 2 Rocket 4.1 04:58:42 10° NW 05:04:32 47° WSW 05:10:13 10° S
Okean O Rocket 1.6 05:04:14 10° N 05:08:36 74° WNW 05:12:54 10° SSW
Cosmos 2061 Rocket 4.2 05:05:48 10° SSW 05:12:03 63° W 05:18:25 10° N
BREEZE-M DEB (TANK) 4.2 05:09:58 10° NW 05:13:24 22° N 05:15:23 10° NE
USA 234 4.5 05:12:36 10° SSW 05:16:43 17° WSW 05:20:50 10° W
Cosmos 1626 Rocket 3.9 05:15:54 10° NNW 05:20:06 47° W 05:24:19 10° SSW
Cosmos 1455 Rocket 4.4 05:16:46 10° SW 05:20:28 25° WNW 05:24:10 10° NNW
Cosmos 2369 Rocket 4.4 05:16:56 10° SSE 05:21:19 23° E 05:25:42 10° NE
PAYLOAD B 4.3 05:16:18 10° N 05:21:54 75° WNW 05:27:28 10° SSW
CZ-3A R/B 4.5 05:18:38 10° SSW 05:38:21 57° SE 05:43:27 10° ENE
